| time (UTC) | temp C | wind direction | speed KPH | gust KPH | rain 1hr cm | rain 24hr cm | rain mn cm | humidity % | barometer mb |
| 20260505122232 | 16 | 303 | 6.4 | 9.7 | 0.00 | 0.00 | 0.00 | 68 | 1017.0 |
| 20260505121733 | 16 | 243 | 4.8 | 6.4 | 0.00 | 0.00 | 0.00 | 69 | 1017.0 |
| 20260505121232 | 16 | 284 | 6.4 | 9.7 | 0.00 | 0.00 | 0.00 | 69 | 1017.0 |
| 20260505120731 | 16 | 224 | 4.8 | 8.0 | 0.00 | 0.00 | 0.00 | 70 | 1017.0 |
| 20260505120232 | 16 | 291 | 3.2 | 8.0 | 0.00 | 0.00 | 0.00 | 71 | 1017.0 |
| 20260505115731 | 16 | 261 | 4.8 | 6.4 | 0.00 | 0.00 | 0.00 | 71 | 1017.0 |
| 20260505115231 | 16 | 278 | 1.6 | 3.2 | 0.00 | 0.00 | 0.00 | 71 | 1017.0 |
| 20260505114731 | 16 | 0 | 0.0 | 0.0 | 0.00 | 0.00 | 0.00 | 71 | 1017.0 |
| 20260505114231 | 15 | 236 | 0.0 | 1.6 | 0.00 | 0.00 | 0.00 | 74 | 1017.0 |
| 20260505113732 | 15 | 221 | 0.0 | 1.6 | 0.00 | 0.00 | 0.00 | 74 | 1017.0 |
| 20260505113232 | 14 | 282 | 3.2 | 4.8 | 0.00 | 0.00 | 0.00 | 76 | 1017.0 |
| 20260505112731 | 13 | 0 | 0.0 | 0.0 | 0.00 | 0.00 | 0.00 | 78 | 1017.0 |
| 20260505112232 | 13 | 280 | 0.0 | 0.0 | 0.00 | 0.00 | 0.00 | 80 | 1017.0 |
| 20260505111731 | 12 | 0 | 0.0 | 0.0 | 0.00 | 0.00 | 0.00 | 82 | 1017.0 |
| 20260505111232 | 12 | 0 | 0.0 | 0.0 | 0.00 | 0.00 | 0.00 | 82 | 1017.0 |
| 20260505110732 | 12 | 0 | 0.0 | 0.0 | 0.00 | 0.00 | 0.00 | 82 | 1017.0 |
| 20260505110232 | 12 | 0 | 0.0 | 0.0 | 0.00 | 0.00 | 0.00 | 82 | 1017.0 |
| 20260505101731 | 12 | 0 | 0.0 | 0.0 | 0.00 | 0.00 | 0.00 | 82 | 1016.0 |
| 20260505101232 | 12 | 250 | 0.0 | 1.6 | 0.00 | 0.00 | 0.00 | 82 | 1016.0 |
| 20260505100733 | 12 | 0 | 0.0 | 0.0 | 0.00 | 0.00 | 0.00 | 83 | 1016.0 |
| 20260505100231 | 12 | 20 | 0.0 | 1.6 | 0.00 | 0.00 | 0.00 | 83 | 1016.0 |
| 20260505095731 | 12 | 0 | 0.0 | 0.0 | 0.00 | 0.00 | 0.00 | 82 | 1016.0 |
| 20260505095233 | 12 | 0 | 0.0 | 0.0 | 0.00 | 0.00 | 0.00 | 81 | 1016.0 |
| 20260505094731 | 12 | 0 | 0.0 | 1.6 | 0.00 | 0.00 | 0.00 | 82 | 1016.0 |
| 20260505094234 | 12 | 0 | 0.0 | 0.0 | 0.00 | 0.00 | 0.00 | 81 | 1016.0 |
| 20260505093732 | 12 | 293 | 0.0 | 1.6 | 0.00 | 0.00 | 0.00 | 80 | 1016.0 |
| 20260505093233 | 13 | 341 | 0.0 | 0.0 | 0.00 | 0.00 | 0.00 | 80 | 1016.0 |
| 20260505092731 | 13 | 282 | 0.0 | 3.2 | 0.00 | 0.00 | 0.00 | 79 | 1016.0 |
| 20260505092231 | 13 | 299 | 3.2 | 3.2 | 0.00 | 0.00 | 0.00 | 79 | 1016.0 |
| 20260505091732 | 13 | 309 | 0.0 | 3.2 | 0.00 | 0.00 | 0.00 | 78 | 1016.0 |
| 20260505091231 | 13 | 297 | 0.0 | 3.2 | 0.00 | 0.00 | 0.00 | 79 | 1016.0 |
| 20260505090732 | 13 | 305 | 0.0 | 1.6 | 0.00 | 0.00 | 0.00 | 80 | 1016.0 |
| 20260505090232 | 13 | 0 | 0.0 | 0.0 | 0.00 | 0.00 | 0.00 | 79 | 1016.0 |
| 20260505085731 | 13 | 284 | 0.0 | 1.6 | 0.00 | 0.00 | 0.00 | 79 | 1016.0 |
| 20260505085234 | 13 | 0 | 0.0 | 0.0 | 0.00 | 0.00 | 0.00 | 78 | 1016.0 |
| 20260505084733 | 13 | 0 | 0.0 | 0.0 | 0.00 | 0.00 | 0.00 | 77 | 1016.0 |
| 20260505084231 | 13 | 277 | 0.0 | 1.6 | 0.00 | 0.00 | 0.00 | 76 | 1016.0 |
| 20260505083732 | 13 | 328 | 1.6 | 3.2 | 0.00 | 0.00 | 0.00 | 76 | 1016.0 |
| 20260505083231 | 13 | 282 | 0.0 | 3.2 | 0.00 | 0.00 | 0.00 | 77 | 1016.0 |
| 20260505082732 | 14 | 0 | 0.0 | 0.0 | 0.00 | 0.00 | 0.00 | 75 | 1016.0 |
| 20260505082232 | 14 | 290 | 0.0 | 3.2 | 0.00 | 0.00 | 0.00 | 75 | 1016.0 |
| 20260505081731 | 14 | 305 | 1.6 | 3.2 | 0.00 | 0.00 | 0.00 | 74 | 1016.0 |
| 20260505081232 | 14 | 279 | 3.2 | 4.8 | 0.00 | 0.00 | 0.00 | 74 | 1016.0 |
| 20260505080732 | 15 | 272 | 0.0 | 3.2 | 0.00 | 0.00 | 0.00 | 74 | 1016.0 |
| 20260505080233 | 15 | 269 | 1.6 | 4.8 | 0.00 | 0.00 | 0.00 | 74 | 1016.0 |
| 20260505075731 | 15 | 276 | 1.6 | 3.2 | 0.00 | 0.00 | 0.00 | 74 | 1016.0 |
| 20260505075232 | 15 | 284 | 3.2 | 4.8 | 0.00 | 0.00 | 0.00 | 74 | 1016.0 |
| 20260505074731 | 15 | 271 | 0.0 | 3.2 | 0.00 | 0.00 | 0.00 | 74 | 1016.0 |
| 20260505074231 | 15 | 289 | 0.0 | 3.2 | 0.00 | 0.00 | 0.00 | 74 | 1015.0 |
| 20260505073731 | 15 | 278 | 4.8 | 6.4 | 0.00 | 0.00 | 0.00 | 74 | 1015.0 |
| 20260505073233 | 15 | 0 | 0.0 | 0.0 | 0.00 | 0.00 | 0.00 | 74 | 1015.0 |
| 20260505072731 | 15 | 72 | 0.0 | 1.6 | 0.00 | 0.00 | 0.00 | 73 | 1015.0 |
| 20260505072231 | 15 | 277 | 1.6 | 3.2 | 0.00 | 0.00 | 0.00 | 72 | 1015.0 |
| 20260505071732 | 15 | 264 | 1.6 | 3.2 | 0.00 | 0.00 | 0.00 | 72 | 1015.0 |
| 20260505071232 | 15 | 287 | 1.6 | 3.2 | 0.00 | 0.00 | 0.00 | 72 | 1015.0 |
| 20260505070732 | 15 | 287 | 1.6 | 3.2 | 0.00 | 0.00 | 0.00 | 72 | 1015.0 |
| 20260505070232 | 15 | 255 | 0.0 | 1.6 | 0.00 | 0.00 | 0.00 | 71 | 1015.0 |
| 20260505065732 | 15 | 0 | 0.0 | 0.0 | 0.00 | 0.00 | 0.00 | 71 | 1015.0 |
| 20260505065231 | 16 | 302 | 3.2 | 6.4 | 0.00 | 0.00 | 0.00 | 70 | 1015.0 |
| 20260505064731 | 16 | 279 | 0.0 | 3.2 | 0.00 | 0.00 | 0.00 | 70 | 1015.0 |
| 20260505064231 | 16 | 282 | 0.0 | 4.8 | 0.00 | 0.00 | 0.00 | 70 | 1015.0 |
| 20260505063732 | 16 | 279 | 1.6 | 3.2 | 0.00 | 0.00 | 0.00 | 69 | 1015.0 |
| 20260505063232 | 16 | 253 | 1.6 | 4.8 | 0.00 | 0.00 | 0.00 | 68 | 1015.0 |
| 20260505062732 | 16 | 260 | 1.6 | 4.8 | 0.00 | 0.00 | 0.00 | 68 | 1015.0 |
| 20260505062231 | 16 | 284 | 4.8 | 8.0 | 0.00 | 0.00 | 0.00 | 68 | 1015.0 |
| 20260505061731 | 16 | 307 | 1.6 | 6.4 | 0.00 | 0.00 | 0.00 | 68 | 1015.0 |
| 20260505061234 | 16 | 230 | 1.6 | 3.2 | 0.00 | 0.00 | 0.00 | 68 | 1015.0 |
| 20260505060731 | 16 | 261 | 0.0 | 0.0 | 0.00 | 0.00 | 0.00 | 67 | 1015.0 |
| 20260505060231 | 16 | 287 | 3.2 | 6.4 | 0.00 | 0.00 | 0.00 | 67 | 1015.0 |
| 20260505055731 | 17 | 247 | 3.2 | 4.8 | 0.00 | 0.00 | 0.00 | 67 | 1015.0 |
| 20260505055231 | 17 | 262 | 1.6 | 3.2 | 0.00 | 0.00 | 0.00 | 66 | 1015.0 |
| 20260505054731 | 17 | 308 | 3.2 | 9.7 | 0.00 | 0.00 | 0.00 | 66 | 1015.0 |
| 20260505054233 | 17 | 269 | 3.2 | 6.4 | 0.00 | 0.00 | 0.00 | 65 | 1015.0 |
| 20260505053732 | 17 | 280 | 3.2 | 4.8 | 0.00 | 0.00 | 0.00 | 65 | 1015.0 |
| 20260505053232 | 17 | 40 | 3.2 | 6.4 | 0.00 | 0.00 | 0.00 | 65 | 1015.0 |
| 20260505052732 | 17 | 44 | 3.2 | 4.8 | 0.00 | 0.00 | 0.00 | 64 | 1015.0 |
| 20260505052231 | 17 | 43 | 3.2 | 4.8 | 0.00 | 0.00 | 0.00 | 65 | 1015.0 |
| 20260505051731 | 17 | 40 | 3.2 | 4.8 | 0.00 | 0.00 | 0.00 | 64 | 1015.0 |
| 20260505051232 | 17 | 40 | 6.4 | 12.9 | 0.00 | 0.00 | 0.00 | 64 | 1015.0 |
| 20260505050732 | 17 | 7 | 4.8 | 8.0 | 0.00 | 0.00 | 0.00 | 64 | 1015.0 |
| 20260505050231 | 17 | 14 | 3.2 | 6.4 | 0.00 | 0.00 | 0.00 | 63 | 1015.0 |
| 20260505041731 | 18 | 283 | 3.2 | 6.4 | 0.00 | 0.00 | 0.00 | 60 | 1015.0 |
| 20260505041232 | 18 | 281 | 3.2 | 6.4 | 0.00 | 0.00 | 0.00 | 60 | 1015.0 |
| 20260505040732 | 18 | 286 | 8.0 | 20.9 | 0.00 | 0.00 | 0.00 | 60 | 1015.0 |
| 20260505040231 | 18 | 267 | 4.8 | 6.4 | 0.00 | 0.00 | 0.00 | 59 | 1015.0 |
| 20260505035731 | 18 | 287 | 6.4 | 12.9 | 0.00 | 0.00 | 0.00 | 59 | 1015.0 |
| 20260505035231 | 18 | 274 | 6.4 | 11.3 | 0.00 | 0.00 | 0.00 | 58 | 1015.0 |
| 20260505034731 | 18 | 266 | 4.8 | 6.4 | 0.00 | 0.00 | 0.00 | 58 | 1015.0 |
| 20260505034233 | 19 | 267 | 6.4 | 12.9 | 0.00 | 0.00 | 0.00 | 57 | 1015.0 |
| 20260505033731 | 19 | 260 | 3.2 | 6.4 | 0.00 | 0.00 | 0.00 | 56 | 1015.0 |
| 20260505033231 | 19 | 273 | 3.2 | 6.4 | 0.00 | 0.00 | 0.00 | 55 | 1015.0 |
| 20260505032731 | 19 | 269 | 3.2 | 6.4 | 0.00 | 0.00 | 0.00 | 55 | 1015.0 |
| 20260505032232 | 20 | 268 | 4.8 | 11.3 | 0.00 | 0.00 | 0.00 | 55 | 1015.0 |
| 20260505031731 | 20 | 273 | 3.2 | 4.8 | 0.00 | 0.00 | 0.00 | 54 | 1015.0 |
| 20260505031231 | 20 | 285 | 6.4 | 9.7 | 0.00 | 0.00 | 0.00 | 53 | 1015.0 |
| 20260505030731 | 20 | 272 | 3.2 | 6.4 | 0.00 | 0.00 | 0.00 | 52 | 1015.0 |
| 20260505030232 | 20 | 271 | 6.4 | 11.3 | 0.00 | 0.00 | 0.00 | 51 | 1015.0 |
| 20260505025731 | 20 | 253 | 3.2 | 6.4 | 0.00 | 0.00 | 0.00 | 50 | 1015.0 |
| 20260505025231 | 20 | 275 | 4.8 | 11.3 | 0.00 | 0.00 | 0.00 | 49 | 1015.0 |
| 20260505024732 | 20 | 295 | 4.8 | 8.0 | 0.00 | 0.00 | 0.00 | 48 | 1015.0 |
| 20260505024231 | 20 | 307 | 6.4 | 8.0 | 0.00 | 0.00 | 0.00 | 47 | 1015.0 |
| 20260505023731 | 20 | 283 | 3.2 | 6.4 | 0.00 | 0.00 | 0.00 | 46 | 1015.0 |
| 20260505023231 | 20 | 288 | 1.6 | 4.8 | 0.00 | 0.00 | 0.00 | 46 | 1015.0 |
| 20260505022731 | 21 | 281 | 3.2 | 6.4 | 0.00 | 0.00 | 0.00 | 45 | 1015.0 |
| 20260505022234 | 21 | 280 | 3.2 | 6.4 | 0.00 | 0.00 | 0.00 | 44 | 1015.0 |
| 20260505021731 | 21 | 280 | 6.4 | 12.9 | 0.00 | 0.00 | 0.00 | 44 | 1015.0 |
| 20260505021231 | 21 | 280 | 3.2 | 4.8 | 0.00 | 0.00 | 0.00 | 44 | 1015.0 |
| 20260505020731 | 21 | 277 | 3.2 | 6.4 | 0.00 | 0.00 | 0.00 | 44 | 1015.0 |
| 20260505020231 | 21 | 288 | 4.8 | 11.3 | 0.00 | 0.00 | 0.00 | 43 | 1015.0 |
| 20260505015731 | 21 | 284 | 3.2 | 9.7 | 0.00 | 0.00 | 0.00 | 43 | 1015.0 |
| 20260505015231 | 21 | 261 | 4.8 | 6.4 | 0.00 | 0.00 | 0.00 | 43 | 1015.0 |
| 20260505014731 | 21 | 268 | 3.2 | 6.4 | 0.00 | 0.00 | 0.00 | 43 | 1015.0 |
| 20260505014231 | 21 | 278 | 6.4 | 12.9 | 0.00 | 0.00 | 0.00 | 42 | 1015.0 |
| 20260505013731 | 21 | 283 | 6.4 | 8.0 | 0.00 | 0.00 | 0.00 | 42 | 1014.0 |
| 20260505013232 | 21 | 274 | 6.4 | 11.3 | 0.00 | 0.00 | 0.00 | 42 | 1014.0 |
| 20260505012731 | 21 | 274 | 3.2 | 8.0 | 0.00 | 0.00 | 0.00 | 42 | 1014.0 |
| 20260505012232 | 22 | 293 | 4.8 | 8.0 | 0.00 | 0.00 | 0.00 | 41 | 1014.0 |
| 20260505011732 | 22 | 272 | 4.8 | 6.4 | 0.00 | 0.00 | 0.00 | 41 | 1014.0 |
| 20260505011232 | 22 | 272 | 1.6 | 3.2 | 0.00 | 0.00 | 0.00 | 41 | 1014.0 |
| 20260505010732 | 21 | 287 | 6.4 | 9.7 | 0.00 | 0.00 | 0.00 | 41 | 1014.0 |
| 20260505010232 | 21 | 279 | 4.8 | 8.0 | 0.00 | 0.00 | 0.00 | 41 | 1014.0 |
| 20260505005731 | 21 | 283 | 3.2 | 9.7 | 0.00 | 0.00 | 0.00 | 42 | 1014.0 |
| 20260505005232 | 20 | 301 | 1.6 | 4.8 | 0.00 | 0.00 | 0.00 | 44 | 1014.0 |
| 20260505004732 | 20 | 146 | 0.0 | 0.0 | 0.00 | 0.00 | 0.00 | 45 | 1014.0 |
| 20260505004232 | 21 | 0 | 0.0 | 0.0 | 0.00 | 0.00 | 0.00 | 44 | 1014.0 |
| 20260505003731 | 21 | 0 | 0.0 | 0.0 | 0.00 | 0.00 | 0.00 | 44 | 1014.0 |
| 20260505003232 | 21 | 0 | 0.0 | 0.0 | 0.00 | 0.00 | 0.00 | 43 | 1014.0 |
| 20260505002731 | 21 | 0 | 0.0 | 0.0 | 0.00 | 0.00 | 0.00 | 42 | 1014.0 |
| 20260505002231 | 22 | 0 | 0.0 | 0.0 | 0.00 | 0.00 | 0.00 | 41 | 1014.0 |
| 20260505001732 | 22 | 0 | 0.0 | 0.0 | 0.00 | 0.00 | 0.00 | 40 | 1013.0 |
| 20260505001232 | 22 | 0 | 0.0 | 0.0 | 0.00 | 0.00 | 0.00 | 39 | 1013.0 |
| 20260505000731 | 23 | 0 | 0.0 | 0.0 | 0.00 | 0.00 | 0.00 | 38 | 1013.0 |
| 20260505000233 | 23 | 0 | 0.0 | 0.0 | 0.00 | 0.00 | 0.00 | 38 | 1013.0 |
| 20260504235731 | 23 | 345 | 0.0 | 6.4 | 0.00 | 0.00 | 0.00 | 37 | 1013.0 |
| 20260504235233 | 24 | 293 | 3.2 | 3.2 | 0.00 | 0.00 | 0.00 | 36 | 1013.0 |
| 20260504234731 | 24 | 289 | 0.0 | 3.2 | 0.00 | 0.00 | 0.00 | 35 | 1013.0 |
| 20260504234232 | 25 | 303 | 3.2 | 3.2 | 0.00 | 0.00 | 0.00 | 35 | 1013.0 |
| 20260504233731 | 25 | 279 | 1.6 | 3.2 | 0.00 | 0.00 | 0.00 | 35 | 1013.0 |
| 20260504233231 | 25 | 271 | 3.2 | 4.8 | 0.00 | 0.00 | 0.00 | 34 | 1013.0 |
| 20260504232731 | 25 | 280 | 3.2 | 8.0 | 0.00 | 0.00 | 0.00 | 34 | 1013.0 |
| 20260504232231 | 25 | 262 | 3.2 | 6.4 | 0.00 | 0.00 | 0.00 | 34 | 1013.0 |
| 20260504231731 | 25 | 269 | 4.8 | 6.4 | 0.00 | 0.00 | 0.00 | 34 | 1013.0 |
| 20260504231232 | 25 | 241 | 1.6 | 3.2 | 0.00 | 0.00 | 0.00 | 34 | 1013.0 |
| 20260504230731 | 26 | 271 | 3.2 | 4.8 | 0.00 | 0.00 | 0.00 | 33 | 1013.0 |
| 20260504230233 | 26 | 250 | 1.6 | 4.8 | 0.00 | 0.00 | 0.00 | 34 | 1013.0 |
| 20260504225732 | 26 | 287 | 6.4 | 9.7 | 0.00 | 0.00 | 0.00 | 33 | 1013.0 |
| 20260504225231 | 26 | 248 | 3.2 | 8.0 | 0.00 | 0.00 | 0.00 | 33 | 1013.0 |
| 20260504224732 | 26 | 289 | 6.4 | 9.7 | 0.00 | 0.00 | 0.00 | 33 | 1013.0 |
| 20260504224232 | 26 | 280 | 12.9 | 19.3 | 0.00 | 0.00 | 0.00 | 33 | 1013.0 |
| 20260504223732 | 26 | 285 | 14.5 | 17.7 | 0.00 | 0.00 | 0.00 | 33 | 1013.0 |
| 20260504223232 | 26 | 285 | 9.7 | 12.9 | 0.00 | 0.00 | 0.00 | 33 | 1013.0 |
| 20260504222731 | 26 | 283 | 6.4 | 17.7 | 0.00 | 0.00 | 0.00 | 33 | 1013.0 |
| 20260504222232 | 26 | 269 | 6.4 | 14.5 | 0.00 | 0.00 | 0.00 | 33 | 1013.0 |
| 20260504221732 | 26 | 279 | 6.4 | 9.7 | 0.00 | 0.00 | 0.00 | 33 | 1013.0 |
| 20260504221231 | 26 | 274 | 3.2 | 8.0 | 0.00 | 0.00 | 0.00 | 33 | 1013.0 |
| 20260504220731 | 26 | 284 | 6.4 | 11.3 | 0.00 | 0.00 | 0.00 | 32 | 1013.0 |
| 20260504220231 | 26 | 272 | 6.4 | 11.3 | 0.00 | 0.00 | 0.00 | 33 | 1013.0 |
| 20260504215733 | 26 | 272 | 6.4 | 11.3 | 0.00 | 0.00 | 0.00 | 32 | 1013.0 |
| 20260504215232 | 26 | 266 | 6.4 | 9.7 | 0.00 | 0.00 | 0.00 | 33 | 1013.0 |
| 20260504214732 | 26 | 275 | 9.7 | 14.5 | 0.00 | 0.00 | 0.00 | 32 | 1013.0 |
| 20260504214232 | 26 | 312 | 3.2 | 6.4 | 0.00 | 0.00 | 0.00 | 32 | 1013.0 |
| 20260504213732 | 26 | 280 | 9.7 | 17.7 | 0.00 | 0.00 | 0.00 | 31 | 1013.0 |
| 20260504213232 | 26 | 285 | 6.4 | 12.9 | 0.00 | 0.00 | 0.00 | 32 | 1013.0 |
| 20260504212731 | 26 | 288 | 4.8 | 6.4 | 0.00 | 0.00 | 0.00 | 32 | 1013.0 |
| 20260504212232 | 26 | 268 | 4.8 | 16.1 | 0.00 | 0.00 | 0.00 | 32 | 1013.0 |
| 20260504211731 | 27 | 277 | 8.0 | 17.7 | 0.00 | 0.00 | 0.00 | 32 | 1013.0 |
| 20260504211232 | 27 | 287 | 4.8 | 9.7 | 0.00 | 0.00 | 0.00 | 31 | 1013.0 |
| 20260504210731 | 27 | 279 | 9.7 | 14.5 | 0.00 | 0.00 | 0.00 | 30 | 1013.0 |
| 20260504210233 | 27 | 272 | 6.4 | 11.3 | 0.00 | 0.00 | 0.00 | 31 | 1013.0 |
| 20260504205731 | 27 | 289 | 4.8 | 8.0 | 0.00 | 0.00 | 0.00 | 31 | 1013.0 |
| 20260504205231 | 28 | 258 | 4.8 | 9.7 | 0.00 | 0.00 | 0.00 | 30 | 1013.0 |
| 20260504204732 | 28 | 284 | 4.8 | 9.7 | 0.00 | 0.00 | 0.00 | 30 | 1013.0 |
| 20260504204232 | 27 | 268 | 6.4 | 9.7 | 0.00 | 0.00 | 0.00 | 29 | 1013.0 |
| 20260504203731 | 27 | 284 | 4.8 | 11.3 | 0.00 | 0.00 | 0.00 | 30 | 1013.0 |
| 20260504203231 | 27 | 283 | 9.7 | 14.5 | 0.00 | 0.00 | 0.00 | 30 | 1014.0 |
| 20260504202732 | 27 | 282 | 4.8 | 8.0 | 0.00 | 0.00 | 0.00 | 30 | 1014.0 |
| 20260504202231 | 27 | 260 | 4.8 | 12.9 | 0.00 | 0.00 | 0.00 | 30 | 1014.0 |
| 20260504201731 | 27 | 284 | 12.9 | 20.9 | 0.00 | 0.00 | 0.00 | 30 | 1014.0 |
| 20260504201233 | 27 | 278 | 6.4 | 11.3 | 0.00 | 0.00 | 0.00 | 29 | 1014.0 |
| 20260504200732 | 27 | 278 | 3.2 | 6.4 | 0.00 | 0.00 | 0.00 | 29 | 1014.0 |
| 20260504200231 | 26 | 265 | 4.8 | 6.4 | 0.00 | 0.00 | 0.00 | 31 | 1014.0 |
| 20260504195732 | 27 | 281 | 6.4 | 11.3 | 0.00 | 0.00 | 0.00 | 30 | 1014.0 |
| 20260504195231 | 26 | 248 | 3.2 | 8.0 | 0.00 | 0.00 | 0.00 | 30 | 1014.0 |
| 20260504194733 | 26 | 267 | 6.4 | 12.9 | 0.00 | 0.00 | 0.00 | 31 | 1014.0 |
| 20260504194231 | 26 | 265 | 8.0 | 17.7 | 0.00 | 0.00 | 0.00 | 30 | 1014.0 |
| 20260504193733 | 26 | 294 | 6.4 | 14.5 | 0.00 | 0.00 | 0.00 | 30 | 1014.0 |
| 20260504193232 | 26 | 277 | 9.7 | 14.5 | 0.00 | 0.00 | 0.00 | 30 | 1014.0 |
| 20260504192734 | 26 | 281 | 4.8 | 12.9 | 0.00 | 0.00 | 0.00 | 30 | 1014.0 |
| 20260504192233 | 26 | 298 | 8.0 | 14.5 | 0.00 | 0.00 | 0.00 | 30 | 1014.0 |
| 20260504191731 | 26 | 275 | 9.7 | 14.5 | 0.00 | 0.00 | 0.00 | 30 | 1014.0 |
| 20260504191232 | 26 | 269 | 3.2 | 9.7 | 0.00 | 0.00 | 0.00 | 29 | 1014.0 |
| 20260504190731 | 26 | 277 | 9.7 | 12.9 | 0.00 | 0.00 | 0.00 | 29 | 1014.0 |
| 20260504190232 | 26 | 284 | 1.6 | 6.4 | 0.00 | 0.00 | 0.00 | 29 | 1015.0 |
| 20260504185731 | 26 | 300 | 4.8 | 11.3 | 0.00 | 0.00 | 0.00 | 30 | 1014.0 |
| 20260504185231 | 26 | 297 | 8.0 | 14.5 | 0.00 | 0.00 | 0.00 | 31 | 1014.0 |
| 20260504184734 | 26 | 284 | 3.2 | 6.4 | 0.00 | 0.00 | 0.00 | 30 | 1014.0 |
| 20260504184232 | 26 | 297 | 6.4 | 9.7 | 0.00 | 0.00 | 0.00 | 30 | 1014.0 |
| 20260504183732 | 26 | 175 | 3.2 | 8.0 | 0.00 | 0.00 | 0.00 | 30 | 1015.0 |
| 20260504183232 | 26 | 287 | 6.4 | 9.7 | 0.00 | 0.00 | 0.00 | 30 | 1015.0 |
| 20260504182732 | 26 | 284 | 3.2 | 11.3 | 0.00 | 0.00 | 0.00 | 30 | 1015.0 |
| 20260504182234 | 26 | 279 | 6.4 | 12.9 | 0.00 | 0.00 | 0.00 | 30 | 1015.0 |
| 20260504181731 | 26 | 294 | 9.7 | 14.5 | 0.00 | 0.00 | 0.00 | 30 | 1015.0 |
| 20260504181232 | 26 | 215 | 4.8 | 8.0 | 0.00 | 0.00 | 0.00 | 31 | 1015.0 |
| 20260504180734 | 26 | 236 | 8.0 | 11.3 | 0.00 | 0.00 | 0.00 | 30 | 1015.0 |
| 20260504180232 | 25 | 41 | 1.6 | 4.8 | 0.00 | 0.00 | 0.00 | 31 | 1015.0 |
| 20260504175731 | 25 | 315 | 3.2 | 9.7 | 0.00 | 0.00 | 0.00 | 32 | 1015.0 |
| 20260504175233 | 25 | 304 | 6.4 | 14.5 | 0.00 | 0.00 | 0.00 | 32 | 1015.0 |
| 20260504174732 | 26 | 281 | 11.3 | 17.7 | 0.00 | 0.00 | 0.00 | 31 | 1015.0 |
| 20260504174231 | 25 | 289 | 1.6 | 4.8 | 0.00 | 0.00 | 0.00 | 32 | 1015.0 |
| 20260504173734 | 25 | 282 | 4.8 | 11.3 | 0.00 | 0.00 | 0.00 | 31 | 1015.0 |
| 20260504173232 | 25 | 286 | 3.2 | 6.4 | 0.00 | 0.00 | 0.00 | 31 | 1015.0 |
| 20260504172733 | 24 | 295 | 6.4 | 9.7 | 0.00 | 0.00 | 0.00 | 30 | 1015.0 |
| 20260504172233 | 24 | 275 | 14.5 | 22.5 | 0.00 | 0.00 | 0.00 | 31 | 1015.0 |
| 20260504171734 | 25 | 263 | 6.4 | 9.7 | 0.00 | 0.00 | 0.00 | 31 | 1015.0 |
| 20260504171233 | 25 | 292 | 8.0 | 12.9 | 0.00 | 0.00 | 0.00 | 29 | 1016.0 |
| 20260504170741 | 25 | 263 | 8.0 | 14.5 | 0.00 | 0.00 | 0.00 | 30 | 1016.0 |
| 20260504170232 | 24 | 297 | 6.4 | 9.7 | 0.00 | 0.00 | 0.00 | 31 | 1016.0 |
| 20260504160233 | 23 | 231 | 4.8 | 6.4 | 0.00 | 0.00 | 0.00 | 40 | 1017.0 |
| 20260504150732 | 20 | 272 | 11.3 | 14.5 | 0.00 | 0.00 | 0.00 | 48 | 1017.0 |
| 20260504150232 | 21 | 273 | 8.0 | 11.3 | 0.00 | 0.00 | 0.00 | 49 | 1017.0 |
| 20260504141232 | 19 | 246 | 1.6 | 9.7 | 0.00 | 0.00 | 0.00 | 53 | 1017.0 |
| 20260504140733 | 18 | 258 | 1.6 | 4.8 | 0.00 | 0.00 | 0.00 | 53 | 1017.0 |
| 20260504140232 | 18 | 234 | 3.2 | 6.4 | 0.00 | 0.00 | 0.00 | 55 | 1017.0 |
| 20260504130734 | 15 | 278 | 6.4 | 11.3 | 0.00 | 0.00 | 0.00 | 64 | 1017.0 |
| 20260504130234 | 15 | 38 | 3.2 | 4.8 | 0.00 | 0.00 | 0.00 | 64 | 1017.0 |